Edna St. Vincent Millay

(22 February 1892 – 19 October 1950 / Rockland / Maine / United States)

Stats

» Click to list general statistics » OR, select a date :

General Statistics

Visitors of the poet

Number of visitors of the poet’s mainpage in PoemHunter.Com

Attention : Numbers in this table does not indicate the total hits of poems of the poet, but indicates the hits of the poet’s main page.

Date Hits
09/02/2015 Wednesday 905
46%
09/01/2015 Tuesday 973
49%
08/31/2015 Monday 812
41%
08/30/2015 Sunday 705
35%
08/29/2015 Saturday 794
40%
08/28/2015 Friday 1006
51%
08/27/2015 Thursday 1963
100%
08/26/2015 Wednesday 836
42%
08/25/2015 Tuesday 740
37%
08/24/2015 Monday 593
30%
08/23/2015 Sunday 633
32%
08/22/2015 Saturday 623
31%
08/21/2015 Friday 630
32%
08/20/2015 Thursday 703
35%
08/19/2015 Wednesday 987
50%
08/18/2015 Tuesday 637
32%
08/17/2015 Monday 623
31%
08/16/2015 Sunday 626
31%
08/15/2015 Saturday 605
30%
08/14/2015 Friday 630
32%

Reader rating & num.of MyPoemList’s

Click the captions of columns to change the order.

# Poem Title Submit Date Reader Rating Num.of MyPoemList’s
Rating Num.R.
1 The Prisoner 07/30/2015 -- 0 0
2 She Is Overheard Singing 06/18/2015 -- 0 1
3 The Courage That My Mother Had 01/03/2015 -- 0 1
4 Childhood Is The Kingdom Where Nobody Dies 11/28/2014 -- 0 0
5 To Kathleen 01/01/2004 5.5 57 4
6 Euclid Alone 01/01/2004 5.7 46 16
7 Grown-Up 01/01/2004 6.2 25 31
8 The Betrothal 01/01/2004 5.6 37 14
9 The Blue Flag In The Bog 01/01/2004 5.9 34 4
10 [four Sonnets (1922)] 01/01/2004 5.2 106 30
11 When I Too Long Have Looked Upon Your Face 01/01/2004 6.2 36 30
12 Bluebeard 01/01/2004 5.5 80 43
13 And You As Well Must Die, Belovèd Dust 01/01/2004 6.0 77 53
14 Thursday 01/01/2004 5.3 76 11
15 To A Young Poet 01/01/2004 5.9 61 9
16 If I Should Learn, In Some Quite Casual Way 01/01/2004 6.4 40 36
17 Lines For A Grave-Stone 01/01/2004 6.1 37 8
18 Sonnet Iii: Mindful Of You The Sodden Earth 01/01/2004 5.6 42 5
19 Sonnet Iv: Not In This Chamber 01/01/2004 5.5 42 3
20 I Shall Go Back 01/01/2004 5.5 39 26
21 No Rose That In A Garden Ever Grew 01/01/2004 5.5 36 12
22 We Talk Of Taxes... 01/01/2004 6.2 28 4
23 I, Being Born A Woman And Distressed 01/01/2004 6.7 33 54
24 Sonnet V: If I Should Learn 01/01/2004 5.3 48 4
25 Recuerdo 01/01/2004 6.5 43 19
26 Humoresque 01/01/2004 5.6 30 16
27 I Do But Ask That You Be Always Fair 01/01/2004 5.5 42 29
28 Sonnet Ii: Time Does Not Bring Relief 01/01/2004 6.0 47 25
29 Sonnets (1923) 01/01/2004 5.3 49 6
30 Oh, My Belovèd, Have You Thought Of This 01/01/2004 6.0 36 13
31 Only Until This Cigarette Is Ended 01/01/2004 5.5 36 45
32 Sonnet Vi: This Door You Might Not Open 01/01/2004 5.9 49 12
33 Sonnet I: Thou Art Not Lovelier Than Lilacs 01/01/2004 5.6 43 11
34 Counting-Out Rhyme 01/01/2004 6.1 99 23
35 I Know 100 Ways To Die 07/07/2003 7.8 4 28
36 Chorus 01/13/2003 5.8 82 23
37 Sonnet (Women Have Loved Before As I Love Now) 01/13/2003 5.9 44 18
38 Inland 01/13/2003 5.5 36 8
39 The Wood Road 01/13/2003 5.8 44 6
40 Fontaine, Je Ne Boirai Pas De Ton Eau! 01/13/2003 5.5 31 8
41 Ebb 01/13/2003 5.5 81 25
42 Second Fig 01/13/2003 6.0 47 27
43 Wraith 01/13/2003 5.6 29 12
44 I Dreamed I Moved Among The Elysian Fields 01/13/2003 5.9 68 25
45 Memorial To D.C. 01/13/2003 5.8 31 2
46 The Plaid Dress 01/13/2003 5.8 46 10
47 Interim 01/13/2003 6.1 36 14
48 Midnight Oil 01/13/2003 5.9 35 12
49 Love Is Not All 01/13/2003 7.5 81 176
50 Portrait By A Neighbour 01/13/2003 5.9 35 9
51 Rosemary 01/13/2003 5.5 44 6
52 Not Even My Pride Shall Suffer Much 01/13/2003 5.7 37 9
53 The Leaf And The Tree 01/13/2003 5.8 59 17
54 Kin To Sorrow 01/13/2003 5.5 34 21
55 Lines Written In Recapitulation 01/13/2003 6.2 49 4
56 City Trees 01/13/2003 5.8 134 59
57 To A Poet That Died Young 01/13/2003 5.8 43 7
58 The Shroud 01/13/2003 5.5 57 5
59 Night Is My Sister, And How Deep In Love 01/13/2003 5.7 35 27
60 Sorrow 01/13/2003 5.7 53 26
61 Underground System 01/13/2003 5.8 34 3
62 Apostrophe To Man 01/13/2003 5.8 118 32
63 The Curse 01/13/2003 5.9 68 13
64 Two Sonnets In Memory 01/13/2003 5.9 31 6
65 Scrub 01/13/2003 5.7 42 5
66 Dirge Without Music 01/13/2003 6.5 101 66
67 Spring 01/13/2003 6.1 45 21
68 When We Are Old And These Rejoicing Veins 01/13/2003 5.7 35 14
69 Sonnets 09: Let You Not Say Of Me When I Am Old 01/13/2003 5.6 51 9
70 The Spring And The Fall 01/13/2003 8.0 111 66
71 Sonnets 11: As To Some Lovely Temple, Tenantless 01/13/2003 5.7 44 3
72 Sweet Love, Sweet Thorn, When Lightly To My Heart 01/13/2003 5.6 45 17
73 The Little Hill 01/13/2003 5.8 54 7
74 Wild Swans 01/13/2003 5.9 32 14
75 Think Not, Not For A Moment Let Your Mind 01/13/2003 5.7 54 14
76 Sonnets 12: Cherish You Then The Hope I Shall Forget 01/13/2003 5.5 61 3
77 The Penitent 01/13/2003 5.6 30 11
78 The Goose-Girl 01/13/2003 5.8 69 9
79 Sonnets From An Ungrafted Tree 01/13/2003 5.7 46 4
80 Alms 01/13/2003 5.7 92 27
81 Not In A Silver Casket Cool With Pearls 01/13/2003 5.9 38 20
82 Doubt No More That Oberon 01/13/2003 5.6 66 13
83 Justice Denied In Massachusetts 01/13/2003 5.9 34 8
84 Menses 01/13/2003 5.5 32 6
85 The Fledgling 01/13/2003 5.4 49 2
86 Sonnets 04: Only Until This Cigarette Is Ended 01/13/2003 5.8 34 11
87 I Know I Am But Summer To Your Heart 01/13/2003 6.5 40 47
88 Mist In The Valley 01/13/2003 5.4 33 15
89 The Concert 01/13/2003 5.5 71 7
90 The Singing-Woman From The Wood's Edge 01/13/2003 5.9 45 8
91 The Suicide 01/13/2003 5.5 58 19
92 The True Encounter 01/13/2003 5.9 54 6
93 Whereas At Morning In A Jeweled Crown 01/13/2003 5.4 42 7
94 Weeds 01/13/2003 8.0 1 8
95 The Bean-Stalk 01/13/2003 5.6 58 5
96 Sonnet 03: Mindful Of You The Sodden Earth In Spring 01/13/2003 5.4 42 5
97 The Ballad Of The Harp-Weaver 01/13/2003 5.9 61 29
98 The Blue-Flag In The Bog 01/13/2003 5.3 62 2
99 Elegy 01/13/2003 5.3 42 8
100 Lament 01/13/2003 6.4 39 26
101 Elegy Before Death 01/13/2003 6.1 31 14
102 Song Of A Second April 01/13/2003 5.9 46 9
103 The Fawn 01/13/2003 5.8 66 5
104 A Visit To The Asylum 01/13/2003 6.0 99 59
105 Autumn Daybreak 01/13/2003 5.6 130 44
106 Being Young And Green 01/13/2003 5.5 84 33
107 Dirge 01/13/2003 5.6 68 11
108 Ashes Of Life 01/13/2003 6.0 87 67
109 The Little Ghost 01/13/2003 6.1 38 16
110 Blight 01/13/2003 5.9 96 22
111 Intention To Escape From Him 01/13/2003 6.3 34 21
112 Sonnets 07: When I Too Long Have Looked Upon Your Face 01/13/2003 5.9 44 23
113 Make Bright The Arrows 01/13/2003 5.7 38 4
114 If Still Your Orchards Bear 01/13/2003 5.8 32 7
115 Low-Tide 01/13/2003 4.8 45 14
116 Here Is A Wound That Never Will Heal, I Know 01/13/2003 6.0 56 57
117 I Know The Face Of Falsehood And Her Tongue 01/13/2003 5.6 44 8
118 Witch-Wife 01/13/2003 5.4 39 24
119 Daphne 01/13/2003 5.7 93 33
120 Eel-Grass 01/13/2003 6.0 33 10
121 Epitaph 01/13/2003 6.1 38 17
122 Journey 01/13/2003 6.2 26 17
123 What Lips My Lips Have Kissed, And Where, And Why (Sonnet Xliii) 01/13/2003 7.9 123 374
124 The Dream 01/13/2003 5.8 62 27
125 Sonnet 06: Bluebeard 01/13/2003 6.1 49 8
126 Burial 01/13/2003 5.3 89 30
127 Assault 01/13/2003 5.6 123 20
128 Modern Declaration 01/13/2003 5.6 34 9
129 The Death Of Autumn 01/13/2003 5.9 59 10
130 Sonnet 05: If I Should Learn, In Some Quite Casual Way 01/13/2003 5.9 48 18
131 Sonnets 06: No Rose That In A Garden Ever Grew 01/13/2003 5.6 42 7
132 Three Songs Of Shattering 01/13/2003 5.9 38 8
133 To Those Without Pity 01/13/2003 5.1 39 10
134 Sonnets 05: Once More Into My Arid Days Like Dew 01/13/2003 5.7 32 8
135 Sonnets 10: Oh, My Beloved, Have You Thought Of This 01/13/2003 5.8 44 6
136 The Philosopher 01/13/2003 5.6 44 23
137 Sonnets 08: And You As Well Must Die, Beloved Dust 01/13/2003 5.5 50 7
138 My Most Distinguished Guest And Learned Friend 01/13/2003 5.4 35 9
139 Sonnets 01: We Talk Of Taxes, And I Call You Friend 01/13/2003 5.4 48 9
140 Pastoral 01/13/2003 5.1 35 5
141 Souvenir 01/13/2003 5.6 46 11
142 Sonnet 01: Thou Art Not Lovelier Than Lilacs,&Mdash;No 01/13/2003 5.7 44 15
143 Sonnet 02: Time Does Not Bring Relief; You All Have Lied 01/13/2003 6.5 66 65
144 Exiled 01/13/2003 6.5 44 22
145 To The Not Impossible Him 01/13/2003 5.3 52 14
146 The Unexplorer 01/13/2003 6.0 49 8
147 Passer Mortuus Est 01/13/2003 5.8 46 10
148 Pity Me Not Because The Light Of Day 01/13/2003 6.3 38 32
149 An Ancient Gesture 01/13/2003 6.0 107 49
150 The Return From Town 01/13/2003 5.5 47 6
151 Prayer To Persephone 01/13/2003 5.5 33 18
152 The Poet And His Book 01/13/2003 6.2 40 11
153 Ode To Silence 01/13/2003 5.9 33 15
154 Indifference 01/13/2003 5.8 33 11
155 Tavern 01/13/2003 5.6 48 8
156 Sonnet 04: Not In This Chamber Only At My Birth 01/13/2003 5.5 43 4
157 Sonnets 02: Into The Golden Vessel Of Great Song 01/13/2003 5.3 55 3
158 Conscientious Objector 01/13/2003 5.5 180 73
159 Sonnets 03: Not With Libations, But With Shouts And Laughter 01/13/2003 5.8 56 6
160 Feast 01/13/2003 6.0 50 14
161 Invocation To The Muses 01/13/2003 5.6 36 4
162 Mariposa 01/13/2003 6.6 50 13
163 Departure 01/13/2003 5.5 88 41
164 And Do You Think That Love Itself 01/13/2003 6.1 114 63
165 Oh, Oh, You Will Be Sorry 01/13/2003 6.4 38 33
166 Travel 01/13/2003 6.0 41 16
167 The Snow Storm 01/13/2003 5.8 75 7
168 First Fig 01/13/2003 7.5 74 93
169 God's World 01/04/2003 6.1 69 38
170 Afternoon On A Hill 01/04/2003 6.6 119 77
171 When The Year Grows Old 01/04/2003 5.7 38 17
172 Renascence 01/04/2003 7.0 31 61
[Hata Bildir]